Weather History for Sparta, TN

Change the Weather History Date:

Monday, October 1, 2012

  Actual Average (KCSV) Record (KCSV)
Temperature  
Mean Temperature 62 °F 62 °F  
Max Temperature 71 °F 72 °F 84 °F (1956)
Min Temperature 53 °F 51 °F 33 °F (1974)
Degree Days  
Heating Degree Days 3    
Month to date heating degree days  
Since 1 July heating degree days  
Cooling Degree Days 0    
Month to date cooling degree days  
Year to date cooling degree days  
Growing Degree Days 12 (Base 50)    
Moisture  
Dew Point 62 °F    
Average Humidity 94    
Maximum Humidity 100    
Minimum Humidity 83    
Precipitation  
Precipitation 0.00 in 0.11 in 1.88 in (1985)
Month to date precipitation 0.11  
Year to date precipitation 42.11  
Sea Level Pressure  
Sea Level Pressure 29.66 in    
Wind  
Wind Speed 5 mph ()    
Max Wind Speed 15 mph    
Max Gust Speed -    
Visibility 7.8 miles    
Events      
T = Trace of Precipitation, MM = Missing Value Source: Averaged Metar Reports

Daily Weather History Graph

Daily Weather History Graph

Search for Another Location

Airport:

Trip Planner

Search our weather history database for the weather conditions in past years. The results will help you decide how hot, cold, wet, or windy it might be!

Date:

Astronomy

Oct. 01, 2012 Rise Set
Actual Time 6:37 AM CDT 6:25 PM CDT
Civil Twilight 6:12 AM CDT 6:50 PM CDT
Nautical Twilight 5:42 AM CDT 7:20 PM CDT
Astronomical Twilight 5:12 AM CDT 7:50 PM CDT
Moon 7:06 PM CDT (10/1) 8:01 AM CDT (10/1)
Length of Visible Light 12h 38m
Length of Day
11h 47m
Full, 98% of the Moon is Illuminated
Oct 1
Full
Oct 8
Last Quarter
Oct 15
New
Oct 21
First Quarter
Oct 29
Full

Hourly Weather History & Observations

Time (CDT) Temp. Dew Point Humidity Pressure Visibility Wind Dir Wind Speed Gust Speed Precip Events Conditions
12:35 AM 57.2 °F 57.2 °F 100% 29.81 in 7.0 mi NE 5.8 mph - N/A   Overcast
12:55 AM 57.2 °F 57.2 °F 100% 29.80 in 10.0 mi ENE 9.2 mph - N/A   Overcast
1:15 AM 57.2 °F 57.2 °F 100% 29.79 in 10.0 mi NE 3.5 mph - N/A   Mostly Cloudy
1:35 AM 57.2 °F 57.2 °F 100% 29.79 in 10.0 mi ENE 6.9 mph - N/A   Overcast
1:55 AM 57.2 °F 57.2 °F 100% 29.79 in 10.0 mi ENE 3.5 mph - N/A   Overcast
2:15 AM 57.2 °F 55.4 °F 94% 29.79 in 4.0 mi Calm Calm - N/A   Overcast
2:35 AM 55.4 °F 55.4 °F 100% 29.78 in 3.0 mi ENE 5.8 mph - N/A   Mostly Cloudy
2:55 AM 55.4 °F 53.6 °F 94% 29.76 in 4.0 mi ENE 5.8 mph - N/A   Overcast
3:15 AM 53.6 °F 53.6 °F 100% 29.75 in 5.0 mi NE 4.6 mph - N/A   Overcast
3:35 AM 53.6 °F 53.6 °F 100% 29.75 in 10.0 mi East 8.1 mph - N/A   Mostly Cloudy
3:55 AM 55.4 °F 55.4 °F 100% 29.74 in 6.0 mi East 10.4 mph - N/A   Mostly Cloudy
4:15 AM 55.4 °F 53.6 °F 94% 29.74 in 4.0 mi NE 3.5 mph - N/A   Overcast
4:35 AM 53.6 °F 53.6 °F 100% 29.73 in 3.0 mi NNE 4.6 mph - N/A   Mostly Cloudy
5:15 AM 53.6 °F 53.6 °F 100% 29.71 in 6.0 mi NE 8.1 mph - N/A   Overcast
5:35 AM 55.4 °F 53.6 °F 94% 29.70 in 6.0 mi NE 8.1 mph - N/A   Mostly Cloudy
5:55 AM 55.4 °F 55.4 °F 100% 29.69 in 3.0 mi ENE 5.8 mph - N/A   Mostly Cloudy
6:15 AM 55.4 °F 55.4 °F 100% 29.70 in 2.5 mi Calm Calm - N/A   Overcast
6:35 AM 55.4 °F 55.4 °F 100% 29.70 in 7.0 mi East 3.5 mph - N/A   Overcast
6:55 AM 57.2 °F 55.4 °F 94% 29.70 in 10.0 mi NNE 3.5 mph - N/A   Overcast
7:15 AM 55.4 °F 55.4 °F 100% 29.69 in 7.0 mi Calm Calm - N/A   Overcast
7:35 AM 57.2 °F 57.2 °F 100% 29.70 in 8.0 mi East 3.5 mph - N/A   Overcast
7:55 AM 57.2 °F 57.2 °F 100% 29.70 in 4.0 mi ESE 4.6 mph - N/A   Overcast
8:15 AM 59.0 °F 57.2 °F 94% 29.69 in 2.0 mi East 5.8 mph - N/A   Overcast
8:35 AM 59.0 °F 59.0 °F 100% 29.69 in 10.0 mi East 4.6 mph - N/A   Overcast
8:55 AM 59.0 °F 59.0 °F 100% 29.67 in 3.0 mi East 8.1 mph - N/A   Overcast
9:15 AM 60.8 °F 60.8 °F 100% 29.66 in 10.0 mi East 5.8 mph - N/A   Scattered Clouds
9:35 AM 62.6 °F 62.6 °F 100% 29.65 in 10.0 mi SE 5.8 mph - N/A   Partly Cloudy
9:55 AM 64.4 °F 64.4 °F 100% 29.67 in 0.2 mi Variable 4.6 mph - N/A   Overcast
10:15 AM 64.4 °F 64.4 °F 100% 29.66 in - South 5.8 mph - N/A   Unknown
10:35 AM 64.4 °F 64.4 °F 100% 29.65 in 0.2 mi SE 8.1 mph - N/A   Overcast
10:55 AM 66.2 °F 66.2 °F 100% 29.65 in - ESE 9.2 mph - N/A   Overcast
11:15 AM 66.2 °F 66.2 °F 100% 29.65 in 10.0 mi SE 6.9 mph - N/A   Mostly Cloudy
12:15 PM 68.0 °F 64.4 °F 88% 29.62 in 10.0 mi SE 8.1 mph - N/A   Mostly Cloudy
12:35 PM 69.8 °F 64.4 °F 83% 29.61 in 10.0 mi SE 10.4 mph - N/A   Mostly Cloudy
12:55 PM 69.8 °F 64.4 °F 83% 29.60 in 10.0 mi SSE 15.0 mph - N/A   Mostly Cloudy
1:15 PM 68.0 °F 64.4 °F 88% 29.61 in 7.0 mi SE 9.2 mph - N/A   Overcast
1:35 PM 66.2 °F 64.4 °F 94% 29.60 in 1.8 mi SE 6.9 mph - N/A   Overcast
1:55 PM 68.0 °F 66.2 °F 94% 29.59 in 10.0 mi SSE 3.5 mph - N/A   Overcast
2:15 PM 69.8 °F 66.2 °F 88% 29.59 in 10.0 mi Variable 5.8 mph - N/A   Overcast
2:55 PM 71.6 °F 66.2 °F 83% 29.58 in 10.0 mi SSE 9.2 mph - N/A   Mostly Cloudy
3:15 PM 71.6 °F 66.2 °F 83% 29.57 in 10.0 mi SSE 10.4 mph - N/A   Mostly Cloudy
3:35 PM 71.6 °F 66.2 °F 83% 29.57 in 10.0 mi SSE 10.4 mph - N/A   Overcast
4:15 PM 71.6 °F 66.2 °F 83% 29.56 in 10.0 mi SSE 9.2 mph - N/A   Overcast
4:35 PM 69.8 °F 66.2 °F 88% 29.56 in 8.0 mi SE 10.4 mph - N/A   Mostly Cloudy
4:55 PM 69.8 °F 66.2 °F 88% 29.56 in 10.0 mi SSE 8.1 mph - N/A   Partly Cloudy
5:15 PM 71.6 °F 66.2 °F 83% 29.56 in 10.0 mi SSE 6.9 mph - N/A   Partly Cloudy
5:35 PM 71.6 °F 66.2 °F 83% 29.56 in 10.0 mi Variable 6.9 mph - N/A   Mostly Cloudy
5:55 PM 71.6 °F 66.2 °F 83% 29.55 in 10.0 mi SE 8.1 mph - N/A   Mostly Cloudy
6:15 PM 71.6 °F 66.2 °F 83% 29.56 in 8.0 mi South 6.9 mph - N/A   Mostly Cloudy
6:35 PM 69.8 °F 68.0 °F 94% 29.57 in 1.2 mi Calm Calm - N/A   Overcast
6:55 PM 69.8 °F 66.2 °F 88% 29.57 in 10.0 mi SSW 4.6 mph - N/A   Overcast
7:15 PM 69.8 °F 68.0 °F 94% 29.58 in 10.0 mi SSE 4.6 mph - N/A   Overcast
7:35 PM 69.8 °F 68.0 °F 94% 29.59 in 10.0 mi Calm Calm - N/A   Overcast
7:55 PM 69.8 °F 68.0 °F 94% 29.60 in 10.0 mi SSW 3.5 mph - N/A   Overcast
8:15 PM 69.8 °F 69.8 °F 100% 29.60 in 10.0 mi Calm Calm - N/A   Overcast
8:35 PM 69.8 °F 68.0 °F 94% 29.61 in 10.0 mi Calm Calm - N/A   Overcast
8:55 PM 68.0 °F 68.0 °F 100% 29.62 in 10.0 mi Calm Calm - N/A   Mostly Cloudy
9:15 PM 69.8 °F 68.0 °F 94% 29.63 in 10.0 mi Calm Calm - N/A   Overcast
9:35 PM 69.8 °F 68.0 °F 94% 29.63 in 10.0 mi WSW 3.5 mph - N/A   Overcast
9:55 PM 69.8 °F 68.0 °F 94% 29.64 in 10.0 mi WSW 5.8 mph - N/A   Overcast
10:15 PM 68.0 °F 66.2 °F 94% 29.64 in 10.0 mi SW 3.5 mph - N/A   Overcast
10:35 PM 68.0 °F 68.0 °F 100% 29.65 in 10.0 mi Calm Calm - N/A   Overcast
10:55 PM 68.0 °F 66.2 °F 94% 29.65 in 10.0 mi SW 4.6 mph - N/A   Overcast
11:15 PM 68.0 °F 66.2 °F 94% 29.65 in 10.0 mi WSW 5.8 mph - N/A   Overcast
11:35 PM 68.0 °F 66.2 °F 94% 29.64 in 10.0 mi WSW 4.6 mph - N/A   Overcast
11:55 PM 68.0 °F 66.2 °F 94% 29.65 in 10.0 mi SW 8.1 mph - N/A   Overcast